Tracking 28790 objects as of 19-Apr-2024
HD Live streaming from Space Station
objects crossing your sky now

COSMOS 2172

Track COSMOS 2172 now!
COSMOS 2172 is classified as:


NORAD ID: 21789
Int'l Code: 1991-079A
Perigee: 35,813.8 km
Apogee: 35,841.4 km
Inclination: 13.9 °
Period: 1,437.8 minutes
Semi major axis: 42198 km
RCS: 5.0118 m2 (large)
Launch date: November 22, 1991
Source: Commonwealth of Independent States (former USSR) (CIS)
Launch site: TYURATAM MISSILE AND SPACE COMPLEX (TTMTR)
Your satellite tracking list
Your tracking list is empty




NASA's NSSDC Master Catalog

Two Line Element Set (TLE):
1 21789U 91079A   24109.90655792 -.00000125  00000-0  00000-0 0  9991
2 21789  13.8637 346.1412 0003270  45.0663 221.9031  1.00151199 39449
Source of the keplerian elements: AFSPC